Time,TemperatureF,DewpointF,PressureIn,WindDirection,WindDirectionDegrees,WindSpeedMPH,WindSpeedGustMPH,Humidity,HourlyPrecipIn,Conditions,Clouds,dailyrainin,SoftwareType,DateUTC
2013-01-22 00:00:00,25.8,9.3,29.85,NNW,329,8.0,18.0,49,0.00,,---,0.00,VWS V14.01,2013-01-22 05:00:00,
2013-01-22 00:01:00,25.7,9.2,29.85,NW,317,16.0,16.0,49,0.00,,---,0.00,VWS V14.01,2013-01-22 05:01:00,
2013-01-22 00:02:00,25.7,9.2,29.85,NW,321,8.0,16.0,49,0.00,,---,0.00,VWS V14.01,2013-01-22 05:02:00,
2013-01-22 00:05:00,25.7,8.7,29.85,NW,310,7.0,20.0,48,0.00,,---,0.00,VWS V14.01,2013-01-22 05:05:00,
2013-01-22 00:10:00,25.6,8.6,29.85,NW,317,9.0,20.0,48,0.00,,---,0.00,VWS V14.01,2013-01-22 05:10:00,
2013-01-22 00:15:00,25.4,8.5,29.85,NW,314,6.0,20.0,48,0.00,,---,0.00,VWS V14.01,2013-01-22 05:15:00,
2013-01-22 00:20:00,25.2,8.7,29.84,WNW,283,10.0,10.0,49,0.00,,---,0.00,VWS V14.01,2013-01-22 05:20:00,
2013-01-22 00:25:00,25.2,7.3,29.84,NW,306,7.0,21.0,46,0.00,,---,0.00,VWS V14.01,2013-01-22 05:25:00,
2013-01-22 00:30:00,25.2,7.3,29.84,West,273,17.0,21.0,46,0.00,,---,0.00,VWS V14.01,2013-01-22 05:30:00,
2013-01-22 00:36:00,25.1,6.8,29.84,NNW,342,16.0,18.0,45,0.00,,---,0.00,VWS V14.01,2013-01-22 05:36:00,
2013-01-22 00:41:00,25.1,6.8,29.84,NW,308,10.0,18.0,45,0.00,,---,0.00,VWS V14.01,2013-01-22 05:41:00,
2013-01-22 00:45:00,25.0,6.2,29.84,WNW,296,10.0,18.0,44,0.00,,---,0.00,VWS V14.01,2013-01-22 05:45:00,
2013-01-22 00:46:00,25.0,6.2,29.84,WNW,286,11.0,11.0,44,0.00,,---,0.00,VWS V14.01,2013-01-22 05:46:00,
2013-01-22 00:51:00,24.8,6.5,29.85,NW,305,4.0,14.0,45,0.00,,---,0.00,VWS V14.01,2013-01-22 05:51:00,
2013-01-22 00:56:00,24.7,6.4,29.85,NNW,343,3.0,14.0,45,0.00,,---,0.00,VWS V14.01,2013-01-22 05:56:00,
2013-01-22 01:00:00,24.5,6.2,29.85,NW,313,13.0,15.0,45,0.00,,---,0.00,VWS V14.01,2013-01-22 06:00:00,
2013-01-22 01:01:00,24.5,6.2,29.85,WNW,300,12.0,13.0,45,0.00,,---,0.00,VWS V14.01,2013-01-22 06:01:00,
2013-01-22 01:06:00,24.5,6.2,29.86,NNW,329,6.0,16.0,45,0.00,,---,0.00,VWS V14.01,2013-01-22 06:06:00,
2013-01-22 01:11:00,24.3,6.0,29.85,NW,304,9.0,16.0,45,0.00,,---,0.00,VWS V14.01,2013-01-22 06:11:00,
2013-01-22 01:15:00,24.2,5.9,29.86,NW,310,10.0,16.0,45,0.00,,---,0.00,VWS V14.01,2013-01-22 06:15:00,
2013-01-22 01:16:00,24.2,5.9,29.86,NW,315,7.0,10.0,45,0.00,,---,0.00,VWS V14.01,2013-01-22 06:16:00,
2013-01-22 01:21:00,24.1,5.8,29.86,NNW,346,10.0,18.0,45,0.00,,---,0.00,VWS V14.01,2013-01-22 06:21:00,
2013-01-22 01:26:00,24.1,5.8,29.86,WNW,291,12.0,23.0,45,0.00,,---,0.00,VWS V14.01,2013-01-22 06:26:00,
2013-01-22 01:30:00,24.0,5.8,29.86,WNW,303,9.0,23.0,45,0.00,,---,0.00,VWS V14.01,2013-01-22 06:30:00,
2013-01-22 01:31:00,24.0,5.8,29.86,WNW,293,5.0,9.0,45,0.00,,---,0.00,VWS V14.01,2013-01-22 06:31:00,
2013-01-22 01:37:00,23.8,5.6,29.86,NNW,336,13.0,18.0,45,0.00,,---,0.00,VWS V14.01,2013-01-22 06:37:00,
2013-01-22 01:42:00,23.7,5.5,29.86,WNW,288,12.0,21.0,45,0.00,,---,0.00,VWS V14.01,2013-01-22 06:42:00,
2013-01-22 01:45:00,23.7,5.5,29.87,WNW,289,11.0,23.0,45,0.00,,---,0.00,VWS V14.01,2013-01-22 06:45:00,
2013-01-22 01:47:00,23.6,5.4,29.87,NW,311,16.0,17.0,45,0.00,,---,0.00,VWS V14.01,2013-01-22 06:47:00,
2013-01-22 01:52:00,23.5,5.3,29.87,NW,317,10.0,21.0,45,0.00,,---,0.00,VWS V14.01,2013-01-22 06:52:00,
2013-01-22 01:57:00,23.4,5.2,29.87,WNW,282,12.0,21.0,45,0.00,,---,0.00,VWS V14.01,2013-01-22 06:57:00,
2013-01-22 02:00:00,23.3,4.6,29.87,NW,308,10.0,22.0,44,0.00,,---,0.00,VWS V14.01,2013-01-22 07:00:00,
2013-01-22 02:02:00,23.3,4.6,29.87,North,355,9.0,14.0,44,0.00,,---,0.00,VWS V14.01,2013-01-22 07:02:00,
2013-01-22 02:07:00,23.2,4.5,29.88,NW,309,8.0,17.0,44,0.00,,---,0.00,VWS V14.01,2013-01-22 07:07:00,
2013-01-22 02:12:00,23.2,4.5,29.88,West,263,8.0,24.0,44,0.00,,---,0.00,VWS V14.01,2013-01-22 07:12:00,
2013-01-22 02:15:00,23.2,4.5,29.88,West,269,11.0,24.0,44,0.00,,---,0.00,VWS V14.01,2013-01-22 07:15:00,
2013-01-22 02:17:00,23.1,4.4,29.88,WSW,249,8.0,14.0,44,0.00,,---,0.00,VWS V14.01,2013-01-22 07:17:00,
2013-01-22 02:22:00,22.9,3.8,29.88,WNW,294,14.0,18.0,43,0.00,,---,0.00,VWS V14.01,2013-01-22 07:22:00,
2013-01-22 02:28:00,22.7,3.1,29.88,NW,315,9.0,18.0,42,0.00,,---,0.00,VWS V14.01,2013-01-22 07:28:00,
2013-01-22 02:30:00,22.6,2.5,29.88,WNW,289,12.0,18.0,41,0.00,,---,0.00,VWS V14.01,2013-01-22 07:30:00,
2013-01-22 02:33:00,22.6,3.0,29.88,West,270,19.0,24.0,42,0.00,,---,0.00,VWS V14.01,2013-01-22 07:33:00,
2013-01-22 02:38:00,22.5,2.4,29.88,NW,321,15.0,24.0,41,0.00,,---,0.00,VWS V14.01,2013-01-22 07:38:00,
2013-01-22 02:43:00,22.3,2.7,29.88,WNW,288,17.0,24.0,42,0.00,,---,0.00,VWS V14.01,2013-01-22 07:43:00,
2013-01-22 02:45:00,22.3,2.7,29.88,NW,306,5.0,24.0,42,0.00,,---,0.00,VWS V14.01,2013-01-22 07:45:00,
2013-01-22 02:48:00,22.2,2.6,29.88,NW,321,7.0,18.0,42,0.00,,---,0.00,VWS V14.01,2013-01-22 07:48:00,
2013-01-22 02:53:00,22.1,2.5,29.88,WNW,295,13.0,18.0,42,0.00,,---,0.00,VWS V14.01,2013-01-22 07:53:00,
2013-01-22 02:59:00,21.9,2.3,29.88,West,266,10.0,18.0,42,0.00,,---,0.00,VWS V14.01,2013-01-22 07:59:00,
2013-01-22 03:00:00,21.8,2.2,29.88,WSW,249,9.0,18.0,42,0.00,,---,0.00,VWS V14.01,2013-01-22 08:00:00,
2013-01-22 03:04:00,21.7,2.2,29.89,WNW,297,16.0,17.0,42,0.00,,---,0.00,VWS V14.01,2013-01-22 08:04:00,
2013-01-22 03:09:00,21.7,2.7,29.89,NW,308,6.0,17.0,43,0.00,,---,0.00,VWS V14.01,2013-01-22 08:09:00,
2013-01-22 03:14:00,21.5,2.5,29.89,NW,311,10.0,19.0,43,0.00,,---,0.00,VWS V14.01,2013-01-22 08:14:00,
2013-01-22 03:15:00,21.5,2.5,29.89,West,278,10.0,21.0,43,0.00,,---,0.00,VWS V14.01,2013-01-22 08:15:00,
2013-01-22 03:19:00,21.4,2.4,29.89,West,281,14.0,16.0,43,0.00,,---,0.00,VWS V14.01,2013-01-22 08:19:00,
2013-01-22 03:24:00,21.3,2.3,29.89,West,281,8.0,17.0,43,0.00,,---,0.00,VWS V14.01,2013-01-22 08:24:00,
2013-01-22 03:29:00,21.2,2.7,29.89,West,260,16.0,17.0,44,0.00,,---,0.00,VWS V14.01,2013-01-22 08:29:00,
2013-01-22 03:30:00,21.2,2.7,29.89,WSW,251,9.0,17.0,44,0.00,,---,0.00,VWS V14.01,2013-01-22 08:30:00,
2013-01-22 03:34:00,21.2,2.7,29.90,WNW,292,15.0,19.0,44,0.00,,---,0.00,VWS V14.01,2013-01-22 08:34:00,
2013-01-22 03:39:00,21.1,2.6,29.90,WNW,286,12.0,19.0,44,0.00,,---,0.00,VWS V14.01,2013-01-22 08:39:00,
2013-01-22 03:44:00,21.0,3.0,29.90,WNW,302,10.0,22.0,45,0.00,,---,0.00,VWS V14.01,2013-01-22 08:44:00,
2013-01-22 03:45:00,21.0,3.0,29.90,WNW,288,12.0,22.0,45,0.00,,---,0.00,VWS V14.01,2013-01-22 08:45:00,
2013-01-22 03:49:00,20.9,2.9,29.90,West,261,3.0,15.0,45,0.00,,---,0.00,VWS V14.01,2013-01-22 08:49:00,
2013-01-22 03:54:00,20.7,2.7,29.90,NNW,329,13.0,25.0,45,0.00,,---,0.00,VWS V14.01,2013-01-22 08:54:00,
2013-01-22 03:59:00,20.5,2.5,29.91,WNW,287,16.0,25.0,45,0.00,,---,0.00,VWS V14.01,2013-01-22 08:59:00,
2013-01-22 04:00:00,20.5,2.5,29.91,WNW,288,4.0,25.0,45,0.00,,---,0.00,VWS V14.01,2013-01-22 09:00:00,
2013-01-22 04:05:00,20.4,2.0,29.91,NW,315,9.0,21.0,44,0.00,,---,0.00,VWS V14.01,2013-01-22 09:05:00,
2013-01-22 04:10:00,20.3,2.4,29.91,West,265,7.0,21.0,45,0.00,,---,0.00,VWS V14.01,2013-01-22 09:10:00,
2013-01-22 04:15:00,20.1,2.2,29.91,West,278,12.0,21.0,45,0.00,,---,0.00,VWS V14.01,2013-01-22 09:15:00,
2013-01-22 04:20:00,20.0,2.1,29.91,NW,306,14.0,14.0,45,0.00,,---,0.00,VWS V14.01,2013-01-22 09:20:00,
2013-01-22 04:25:00,19.8,1.9,29.92,WNW,294,7.0,18.0,45,0.00,,---,0.00,VWS V14.01,2013-01-22 09:25:00,
2013-01-22 04:30:00,19.7,1.8,29.92,WSW,252,12.0,21.0,45,0.00,,---,0.00,VWS V14.01,2013-01-22 09:30:00,
2013-01-22 04:35:00,19.7,1.8,29.92,WNW,299,13.0,21.0,45,0.00,,---,0.00,VWS V14.01,2013-01-22 09:35:00,
2013-01-22 04:40:00,19.6,1.7,29.93,West,280,18.0,21.0,45,0.00,,---,0.00,VWS V14.01,2013-01-22 09:40:00,
2013-01-22 04:45:00,19.5,1.6,29.93,WNW,287,15.0,21.0,45,0.00,,---,0.00,VWS V14.01,2013-01-22 09:45:00,
2013-01-22 04:50:00,19.4,2.0,29.93,NW,318,7.0,15.0,46,0.00,,---,0.00,VWS V14.01,2013-01-22 09:50:00,
2013-01-22 04:55:00,19.2,1.8,29.93,NW,304,12.0,25.0,46,0.00,,---,0.00,VWS V14.01,2013-01-22 09:55:00,
2013-01-22 05:00:00,19.1,2.2,29.94,WNW,290,8.0,25.0,47,0.00,,---,0.00,VWS V14.01,2013-01-22 10:00:00,
2013-01-22 05:05:00,19.0,2.1,29.94,NW,307,15.0,18.0,47,0.00,,---,0.00,VWS V14.01,2013-01-22 10:05:00,
2013-01-22 05:10:00,18.9,2.0,29.94,NW,304,10.0,18.0,47,0.00,,---,0.00,VWS V14.01,2013-01-22 10:10:00,
2013-01-22 05:15:00,18.8,1.9,29.94,West,272,16.0,18.0,47,0.00,,---,0.00,VWS V14.01,2013-01-22 10:15:00,
2013-01-22 05:20:00,18.7,2.3,29.95,WNW,285,7.0,15.0,48,0.00,,---,0.00,VWS V14.01,2013-01-22 10:20:00,
2013-01-22 05:25:00,18.7,2.3,29.95,WNW,302,9.0,18.0,48,0.00,,---,0.00,VWS V14.01,2013-01-22 10:25:00,
2013-01-22 05:30:00,18.6,2.2,29.95,NW,304,8.0,18.0,48,0.00,,---,0.00,VWS V14.01,2013-01-22 10:30:00,
2013-01-22 05:31:00,18.6,2.2,29.95,NW,304,8.0,18.0,48,0.00,,---,0.00,VWS V14.01,2013-01-22 10:31:00,
2013-01-22 05:36:00,18.5,2.1,29.95,WNW,288,14.0,18.0,48,0.00,,---,0.00,VWS V14.01,2013-01-22 10:36:00,
2013-01-22 05:41:00,18.5,2.1,29.95,NNW,332,15.0,18.0,48,0.00,,---,0.00,VWS V14.01,2013-01-22 10:41:00,
2013-01-22 05:45:00,18.4,2.0,29.96,WNW,286,16.0,21.0,48,0.00,,---,0.00,VWS V14.01,2013-01-22 10:45:00,
2013-01-22 05:46:00,18.4,2.0,29.96,WNW,300,14.0,16.0,48,0.00,,---,0.00,VWS V14.01,2013-01-22 10:46:00,
2013-01-22 05:51:00,18.4,2.0,29.96,WNW,284,7.0,21.0,48,0.00,,---,0.00,VWS V14.01,2013-01-22 10:51:00,
2013-01-22 05:56:00,18.3,1.9,29.96,WNW,298,8.0,21.0,48,0.00,,---,0.00,VWS V14.01,2013-01-22 10:56:00,
2013-01-22 06:00:00,18.2,2.3,29.96,NNW,328,10.0,21.0,49,0.00,,---,0.00,VWS V14.01,2013-01-22 11:00:00,
2013-01-22 06:01:00,18.2,2.3,29.96,NW,321,9.0,13.0,49,0.00,,---,0.00,VWS V14.01,2013-01-22 11:01:00,
2013-01-22 06:06:00,18.1,2.2,29.97,NW,306,12.0,16.0,49,0.00,,---,0.00,VWS V14.01,2013-01-22 11:06:00,
2013-01-22 06:11:00,18.0,2.1,29.97,WNW,296,7.0,16.0,49,0.00,,---,0.00,VWS V14.01,2013-01-22 11:11:00,
2013-01-22 06:15:00,18.0,2.1,29.97,NW,309,10.0,19.0,49,0.00,,---,0.00,VWS V14.01,2013-01-22 11:15:00,
2013-01-22 06:17:00,18.0,2.5,29.97,WSW,256,10.0,14.0,50,0.00,,---,0.00,VWS V14.01,2013-01-22 11:17:00,
2013-01-22 06:22:00,17.8,2.3,29.98,WNW,300,9.0,14.0,50,0.00,,---,0.00,VWS V14.01,2013-01-22 11:22:00,
2013-01-22 06:28:00,17.7,2.2,29.98,NW,307,6.0,15.0,50,0.00,,---,0.00,VWS V14.01,2013-01-22 11:28:00,
2013-01-22 06:30:00,17.7,2.2,29.98,West,273,11.0,15.0,50,0.00,,---,0.00,VWS V14.01,2013-01-22 11:30:00,
2013-01-22 06:33:00,17.7,2.2,29.98,WNW,292,9.0,11.0,50,0.00,,---,0.00,VWS V14.01,2013-01-22 11:33:00,
2013-01-22 06:38:00,17.6,2.1,29.98,NNW,345,12.0,15.0,50,0.00,,---,0.00,VWS V14.01,2013-01-22 11:38:00,
2013-01-22 06:43:00,17.5,2.0,29.99,NW,317,7.0,15.0,50,0.00,,---,0.00,VWS V14.01,2013-01-22 11:43:00,
2013-01-22 06:45:00,17.5,2.5,29.99,NW,313,5.0,15.0,51,0.00,,---,0.00,VWS V14.01,2013-01-22 11:45:00,
2013-01-22 06:48:00,17.4,2.4,29.99,WNW,296,4.0,11.0,51,0.00,,---,0.00,VWS V14.01,2013-01-22 11:48:00,
2013-01-22 06:54:00,17.3,2.3,29.99,NW,317,7.0,13.0,51,0.00,,---,0.00,VWS V14.01,2013-01-22 11:54:00,
2013-01-22 06:59:00,17.3,2.3,29.99,WNW,296,8.0,13.0,51,0.00,,---,0.00,VWS V14.01,2013-01-22 11:59:00,
2013-01-22 07:00:00,17.3,2.3,30.00,WNW,296,8.0,13.0,51,0.00,,---,0.00,VWS V14.01,2013-01-22 12:00:00,
2013-01-22 07:04:00,17.2,2.2,30.00,WNW,299,8.0,13.0,51,0.00,,---,0.00,VWS V14.01,2013-01-22 12:04:00,
2013-01-22 07:09:00,17.2,2.2,30.00,West,267,7.0,16.0,51,0.00,,---,0.00,VWS V14.01,2013-01-22 12:09:00,
2013-01-22 07:14:00,17.2,2.2,30.00,West,280,11.0,16.0,51,0.00,,---,0.00,VWS V14.01,2013-01-22 12:14:00,
2013-01-22 07:15:00,17.1,2.1,30.00,WNW,293,14.0,16.0,51,0.00,,---,0.00,VWS V14.01,2013-01-22 12:15:00,
2013-01-22 07:19:00,17.1,2.1,30.00,SW,236,3.0,16.0,51,0.00,,---,0.00,VWS V14.01,2013-01-22 12:19:00,
2013-01-22 07:24:00,17.0,2.4,30.01,NW,304,4.0,16.0,52,0.00,,---,0.00,VWS V14.01,2013-01-22 12:24:00,
2013-01-22 07:30:00,17.0,2.0,30.01,WNW,290,7.0,16.0,51,0.00,,---,0.00,VWS V14.01,2013-01-22 12:30:00,
2013-01-22 07:35:00,16.9,1.9,30.01,NW,309,8.0,12.0,51,0.00,,---,0.00,VWS V14.01,2013-01-22 12:35:00,
2013-01-22 07:40:00,16.8,1.8,30.01,West,280,5.0,16.0,51,0.00,,---,0.00,VWS V14.01,2013-01-22 12:40:00,
2013-01-22 07:45:00,16.8,1.8,30.02,WNW,290,5.0,16.0,51,0.00,,---,0.00,VWS V14.01,2013-01-22 12:45:00,
2013-01-22 07:50:00,16.8,2.2,30.02,WNW,285,5.0,8.0,52,0.00,,---,0.00,VWS V14.01,2013-01-22 12:50:00,
2013-01-22 07:56:00,16.9,1.9,30.02,WSW,258,5.0,12.0,51,0.00,,---,0.00,VWS V14.01,2013-01-22 12:56:00,
2013-01-22 08:00:00,17.0,2.0,30.03,WNW,286,10.0,14.0,51,0.00,,---,0.00,VWS V14.01,2013-01-22 13:00:00,
2013-01-22 08:01:00,17.0,2.0,30.03,NNW,334,8.0,8.0,51,0.00,,---,0.00,VWS V14.01,2013-01-22 13:01:00,
2013-01-22 08:07:00,17.1,1.7,30.03,WNW,290,7.0,15.0,50,0.00,,---,0.00,VWS V14.01,2013-01-22 13:07:00,
2013-01-22 08:12:00,17.1,2.1,30.03,West,280,4.0,15.0,51,0.00,,---,0.00,VWS V14.01,2013-01-22 13:12:00,
2013-01-22 08:15:00,17.2,1.8,30.03,West,281,6.0,15.0,50,0.00,,---,0.00,VWS V14.01,2013-01-22 13:15:00,
2013-01-22 08:17:00,17.2,1.8,30.03,NW,321,6.0,17.0,50,0.00,,---,0.00,VWS V14.01,2013-01-22 13:17:00,
2013-01-22 08:23:00,17.2,1.8,30.04,West,270,13.0,24.0,50,0.00,,---,0.00,VWS V14.01,2013-01-22 13:23:00,
2013-01-22 08:28:00,17.2,1.3,30.04,WSW,245,12.0,24.0,49,0.00,,---,0.00,VWS V14.01,2013-01-22 13:28:00,
2013-01-22 08:30:00,17.2,1.3,30.04,NW,309,13.0,24.0,49,0.00,,---,0.00,VWS V14.01,2013-01-22 13:30:00,
2013-01-22 08:33:00,17.3,1.4,30.04,WNW,298,12.0,16.0,49,0.00,,---,0.00,VWS V14.01,2013-01-22 13:33:00,
2013-01-22 08:38:00,17.3,1.4,30.04,NW,320,8.0,18.0,49,0.00,,---,0.00,VWS V14.01,2013-01-22 13:38:00,
2013-01-22 08:44:00,17.3,1.0,30.04,NW,313,15.0,31.0,48,0.00,,---,0.00,VWS V14.01,2013-01-22 13:44:00,
2013-01-22 08:45:00,17.4,1.1,30.04,West,273,16.0,31.0,48,0.00,,---,0.00,VWS V14.01,2013-01-22 13:45:00,
2013-01-22 08:49:00,17.4,1.1,30.04,WNW,302,17.0,24.0,48,0.00,,---,0.00,VWS V14.01,2013-01-22 13:49:00,
2013-01-22 08:54:00,17.6,1.3,30.04,West,272,11.0,24.0,48,0.00,,---,0.00,VWS V14.01,2013-01-22 13:54:00,
2013-01-22 08:59:00,17.7,1.4,30.04,NW,309,17.0,24.0,48,0.00,,---,0.00,VWS V14.01,2013-01-22 13:59:00,
2013-01-22 09:00:00,17.7,0.9,30.04,WNW,292,12.0,24.0,47,0.00,,---,0.00,VWS V14.01,2013-01-22 14:00:00,
2013-01-22 09:04:00,17.6,0.8,30.04,NNW,329,15.0,24.0,47,0.00,,---,0.00,VWS V14.01,2013-01-22 14:04:00,
2013-01-22 09:10:00,17.7,0.9,30.04,WNW,287,22.0,25.0,47,0.00,,---,0.00,VWS V14.01,2013-01-22 14:10:00,
2013-01-22 09:15:00,17.6,0.8,30.04,NNW,342,13.0,28.0,47,0.00,,---,0.00,VWS V14.01,2013-01-22 14:15:00,
2013-01-22 09:20:00,17.7,0.9,30.04,NNW,330,15.0,24.0,47,0.00,,---,0.00,VWS V14.01,2013-01-22 14:20:00,
2013-01-22 09:25:00,17.7,0.9,30.04,NW,309,18.0,28.0,47,0.00,,---,0.00,VWS V14.01,2013-01-22 14:25:00,
2013-01-22 09:30:00,17.8,1.0,30.05,WNW,290,9.0,29.0,47,0.00,,---,0.00,VWS V14.01,2013-01-22 14:30:00,
2013-01-22 09:35:00,18.0,0.7,30.05,WNW,288,20.0,25.0,46,0.00,,---,0.00,VWS V14.01,2013-01-22 14:35:00,
2013-01-22 09:40:00,18.0,0.2,30.05,WNW,289,11.0,27.0,45,0.00,,---,0.00,VWS V14.01,2013-01-22 14:40:00,
2013-01-22 09:45:00,18.1,0.3,30.05,NW,309,5.0,27.0,45,0.00,,---,0.00,VWS V14.01,2013-01-22 14:45:00,
2013-01-22 09:46:00,18.1,0.3,30.05,NNW,335,12.0,27.0,45,0.00,,---,0.00,VWS V14.01,2013-01-22 14:46:00,
2013-01-22 09:52:00,18.1,-0.6,30.05,WNW,291,15.0,23.0,43,0.00,,---,0.00,VWS V14.01,2013-01-22 14:52:00,
2013-01-22 09:57:00,18.3,0.5,30.06,WNW,292,14.0,30.0,45,0.00,,---,0.00,VWS V14.01,2013-01-22 14:57:00,
2013-01-22 10:00:00,18.4,0.1,30.05,NNW,329,12.0,30.0,44,0.00,,---,0.00,VWS V14.01,2013-01-22 15:00:00,
2013-01-22 10:02:00,18.3,0.1,30.05,WNW,284,14.0,23.0,44,0.00,,---,0.00,VWS V14.01,2013-01-22 15:02:00,
2013-01-22 10:07:00,18.1,-0.6,30.06,NNW,333,12.0,35.0,43,0.00,,---,0.00,VWS V14.01,2013-01-22 15:07:00,
2013-01-22 10:12:00,18.2,-0.5,30.06,WNW,288,19.0,35.0,43,0.00,,---,0.00,VWS V14.01,2013-01-22 15:12:00,
2013-01-22 10:15:00,18.1,-1.1,30.06,NW,314,18.0,35.0,42,0.00,,---,0.00,VWS V14.01,2013-01-22 15:15:00,
2013-01-22 10:18:00,18.2,-1.5,30.06,NNW,329,26.0,30.0,41,0.00,,---,0.00,VWS V14.01,2013-01-22 15:18:00,
2013-01-22 10:23:00,18.5,-2.3,30.06,NW,321,17.0,30.0,39,0.00,,---,0.00,VWS V14.01,2013-01-22 15:23:00,
2013-01-22 10:28:00,18.7,-2.1,30.06,WSW,254,23.0,30.0,39,0.00,,---,0.00,VWS V14.01,2013-01-22 15:28:00,
2013-01-22 10:30:00,18.5,-3.4,30.06,WNW,296,22.0,31.0,37,0.00,,---,0.00,VWS V14.01,2013-01-22 15:30:00,
2013-01-22 10:33:00,18.6,-3.3,30.06,WNW,284,23.0,29.0,37,0.00,,---,0.00,VWS V14.01,2013-01-22 15:33:00,
2013-01-22 10:39:00,18.9,-3.1,30.06,WNW,294,16.0,29.0,37,0.00,,---,0.00,VWS V14.01,2013-01-22 15:39:00,
2013-01-22 10:44:00,18.9,-3.1,30.06,NW,307,12.0,29.0,37,0.00,,---,0.00,VWS V14.01,2013-01-22 15:44:00,
2013-01-22 10:45:00,19.0,-3.0,30.07,NW,305,16.0,30.0,37,0.00,,---,0.00,VWS V14.01,2013-01-22 15:45:00,
2013-01-22 10:49:00,18.8,-3.2,30.06,West,275,15.0,25.0,37,0.00,,---,0.00,VWS V14.01,2013-01-22 15:49:00,
2013-01-22 10:54:00,18.7,-2.7,30.06,NW,320,23.0,25.0,38,0.00,,---,0.00,VWS V14.01,2013-01-22 15:54:00,
2013-01-22 10:59:00,18.7,-3.2,30.06,WNW,300,11.0,26.0,37,0.00,,---,0.00,VWS V14.01,2013-01-22 15:59:00,
2013-01-22 11:00:00,18.9,-3.1,30.06,NW,316,19.0,27.0,37,0.00,,---,0.00,VWS V14.01,2013-01-22 16:00:00,
2013-01-22 11:05:00,18.8,-3.7,30.06,NW,312,19.0,33.0,36,0.00,,---,0.00,VWS V14.01,2013-01-22 16:05:00,
2013-01-22 11:10:00,19.1,-2.3,30.06,West,272,22.0,33.0,38,0.00,,---,0.00,VWS V14.01,2013-01-22 16:10:00,
2013-01-22 11:15:00,19.1,-3.5,30.06,NW,317,25.0,33.0,36,0.00,,---,0.00,VWS V14.01,2013-01-22 16:15:00,
2013-01-22 11:20:00,19.0,-3.5,30.06,WNW,297,19.0,31.0,36,0.00,,---,0.00,VWS V14.01,2013-01-22 16:20:00,
2013-01-22 11:25:00,19.4,-2.0,30.06,WNW,285,23.0,31.0,38,0.00,,---,0.00,VWS V14.01,2013-01-22 16:25:00,
2013-01-22 11:30:00,18.5,-3.4,30.06,West,278,18.0,31.0,37,0.00,,---,0.00,VWS V14.01,2013-01-22 16:30:00,
2013-01-22 11:35:00,18.8,-2.6,30.06,WNW,300,11.0,29.0,38,0.00,,---,0.00,VWS V14.01,2013-01-22 16:35:00,
2013-01-22 11:41:00,18.7,-3.2,30.06,NW,315,15.0,29.0,37,0.00,,---,0.00,VWS V14.01,2013-01-22 16:41:00,
2013-01-22 11:45:00,18.6,-3.3,30.05,West,279,13.0,30.0,37,0.00,,---,0.00,VWS V14.01,2013-01-22 16:45:00,
2013-01-22 11:46:00,18.6,-3.3,30.05,West,279,13.0,30.0,37,0.00,,---,0.00,VWS V14.01,2013-01-22 16:46:00,
2013-01-22 11:51:00,18.4,-3.5,30.05,West,271,25.0,28.0,37,0.00,,---,0.00,VWS V14.01,2013-01-22 16:51:00,
2013-01-22 11:56:00,18.5,-2.9,30.05,West,281,11.0,28.0,38,0.00,,---,0.00,VWS V14.01,2013-01-22 16:56:00,
2013-01-22 12:00:00,18.4,-3.0,30.05,WNW,296,12.0,30.0,38,0.00,,---,0.00,VWS V14.01,2013-01-22 17:00:00,
2013-01-22 12:02:00,18.4,-2.4,30.05,WNW,286,22.0,28.0,39,0.00,,---,0.00,VWS V14.01,2013-01-22 17:02:00,
2013-01-22 12:07:00,18.0,-1.7,30.05,West,267,9.0,28.0,41,0.00,,---,0.00,VWS V14.01,2013-01-22 17:07:00,
2013-01-22 12:12:00,18.4,-2.4,30.05,WNW,294,13.0,28.0,39,0.00,,---,0.00,VWS V14.01,2013-01-22 17:12:00,
2013-01-22 12:15:00,18.5,-2.3,30.05,WNW,289,11.0,28.0,39,0.00,,---,0.00,VWS V14.01,2013-01-22 17:15:00,
2013-01-22 12:17:00,18.3,-2.5,30.05,NW,305,10.0,20.0,39,0.00,,---,0.00,VWS V14.01,2013-01-22 17:17:00,
2013-01-22 12:23:00,18.7,-3.2,30.05,WNW,294,17.0,27.0,37,0.00,,---,0.00,VWS V14.01,2013-01-22 17:23:00,
2013-01-22 12:28:00,18.9,-3.6,30.04,NNW,333,7.0,27.0,36,0.00,,---,0.00,VWS V14.01,2013-01-22 17:28:00,
2013-01-22 12:30:00,18.9,-3.6,30.04,West,273,12.0,27.0,36,0.00,,---,0.00,VWS V14.01,2013-01-22 17:30:00,
2013-01-22 12:33:00,18.7,-4.4,30.04,WNW,282,12.0,28.0,35,0.00,,---,0.00,VWS V14.01,2013-01-22 17:33:00,
2013-01-22 12:38:00,18.3,-4.8,30.04,SW,214,13.0,28.0,35,0.00,,---,0.00,VWS V14.01,2013-01-22 17:38:00,
2013-01-22 12:44:00,18.8,-4.3,30.04,NW,322,10.0,28.0,35,0.00,,---,0.00,VWS V14.01,2013-01-22 17:44:00,
2013-01-22 12:45:00,18.9,-4.2,30.03,WNW,290,18.0,28.0,35,0.00,,---,0.00,VWS V14.01,2013-01-22 17:45:00,
2013-01-22 12:49:00,19.1,-4.0,30.03,WNW,301,17.0,20.0,35,0.00,,---,0.00,VWS V14.01,2013-01-22 17:49:00,
2013-01-22 12:55:00,18.5,-4.0,30.03,WNW,288,18.0,31.0,36,0.00,,---,0.00,VWS V14.01,2013-01-22 17:55:00,
2013-01-22 13:00:00,18.5,-2.9,30.03,North,5,11.0,33.0,38,0.00,,---,0.00,VWS V14.01,2013-01-22 18:00:00,
2013-01-22 13:05:00,18.7,-4.4,30.03,NW,311,23.0,26.0,35,0.00,,---,0.00,VWS V14.01,2013-01-22 18:05:00,
2013-01-22 13:10:00,18.9,-4.8,30.03,West,276,13.0,26.0,34,0.00,,---,0.00,VWS V14.01,2013-01-22 18:10:00,
2013-01-22 13:15:00,19.3,-3.9,30.03,SW,232,15.0,27.0,35,0.00,,---,0.00,VWS V14.01,2013-01-22 18:15:00,
2013-01-22 13:16:00,19.3,-3.9,30.03,SW,232,15.0,27.0,35,0.00,,---,0.00,VWS V14.01,2013-01-22 18:16:00,
2013-01-22 13:21:00,19.3,-4.5,30.03,West,261,13.0,25.0,34,0.00,,---,0.00,VWS V14.01,2013-01-22 18:21:00,
2013-01-22 13:26:00,19.1,-5.3,30.03,NW,321,15.0,26.0,33,0.00,,---,0.00,VWS V14.01,2013-01-22 18:26:00,
2013-01-22 13:30:00,19.2,-5.2,30.03,WSW,253,24.0,28.0,33,0.00,,---,0.00,VWS V14.01,2013-01-22 18:30:00,
2013-01-22 13:32:00,19.0,-5.3,30.03,West,263,27.0,27.0,33,0.00,,---,0.00,VWS V14.01,2013-01-22 18:32:00,
2013-01-22 13:37:00,19.0,-4.7,30.03,WNW,283,13.0,28.0,34,0.00,,---,0.00,VWS V14.01,2013-01-22 18:37:00,
2013-01-22 13:42:00,19.2,-4.6,30.03,NW,311,12.0,28.0,34,0.00,,---,0.00,VWS V14.01,2013-01-22 18:42:00,
2013-01-22 13:45:00,19.4,-5.0,30.03,West,263,18.0,28.0,33,0.00,,---,0.00,VWS V14.01,2013-01-22 18:45:00,
2013-01-22 13:47:00,19.3,-4.5,30.03,WNW,286,10.0,20.0,34,0.00,,---,0.00,VWS V14.01,2013-01-22 18:47:00,
2013-01-22 13:52:00,19.2,-4.6,30.03,WNW,288,9.0,24.0,34,0.00,,---,0.00,VWS V14.01,2013-01-22 18:52:00,
2013-01-22 13:58:00,19.6,-4.8,30.03,NNE,24,11.0,24.0,33,0.00,,---,0.00,VWS V14.01,2013-01-22 18:58:00,
2013-01-22 14:00:00,19.5,-4.9,30.03,WNW,302,20.0,24.0,33,0.00,,---,0.00,VWS V14.01,2013-01-22 19:00:00,
2013-01-22 14:03:00,19.5,-4.3,30.04,NW,311,13.0,18.0,34,0.00,,---,0.00,VWS V14.01,2013-01-22 19:03:00,
2013-01-22 14:08:00,19.4,-6.3,30.04,NW,318,12.0,23.0,31,0.00,,---,0.00,VWS V14.01,2013-01-22 19:08:00,
2013-01-22 14:13:00,19.5,-4.9,30.04,West,271,14.0,23.0,33,0.00,,---,0.00,VWS V14.01,2013-01-22 19:13:00,
2013-01-22 14:15:00,19.2,-5.2,30.04,WNW,287,17.0,23.0,33,0.00,,---,0.00,VWS V14.01,2013-01-22 19:15:00,
2013-01-22 14:19:00,19.2,-4.6,30.04,NW,311,11.0,19.0,34,0.00,,---,0.00,VWS V14.01,2013-01-22 19:19:00,
2013-01-22 14:24:00,19.5,-4.9,30.04,NNW,333,9.0,23.0,33,0.00,,---,0.00,VWS V14.01,2013-01-22 19:24:00,
2013-01-22 14:29:00,19.2,-5.2,30.05,WNW,301,13.0,27.0,33,0.00,,---,0.00,VWS V14.01,2013-01-22 19:29:00,
2013-01-22 14:30:00,19.0,-6.0,30.05,North,5,14.0,27.0,32,0.00,,---,0.00,VWS V14.01,2013-01-22 19:30:00,
2013-01-22 14:34:00,18.7,-5.6,30.04,WNW,303,14.0,24.0,33,0.00,,---,0.00,VWS V14.01,2013-01-22 19:34:00,
2013-01-22 14:40:00,19.0,-5.3,30.04,WNW,296,14.0,24.0,33,0.00,,---,0.00,VWS V14.01,2013-01-22 19:40:00,
2013-01-22 14:45:00,19.0,-5.3,30.05,WNW,288,15.0,24.0,33,0.00,,---,0.00,VWS V14.01,2013-01-22 19:45:00,
2013-01-22 14:50:00,18.7,-5.0,30.05,WNW,283,13.0,27.0,34,0.00,,---,0.00,VWS V14.01,2013-01-22 19:50:00,
2013-01-22 14:55:00,19.1,-4.7,30.05,WNW,302,6.0,27.0,34,0.00,,---,0.00,VWS V14.01,2013-01-22 19:55:00,
2013-01-22 15:00:00,18.8,-5.5,30.05,West,277,11.0,27.0,33,0.00,,---,0.00,VWS V14.01,2013-01-22 20:00:00,
2013-01-22 15:05:00,18.9,-4.8,30.05,NNW,333,10.0,21.0,34,0.00,,---,0.00,VWS V14.01,2013-01-22 20:05:00,
2013-01-22 15:10:00,18.9,-4.8,30.05,West,261,9.0,21.0,34,0.00,,---,0.00,VWS V14.01,2013-01-22 20:10:00,
2013-01-22 15:15:00,18.9,-4.8,30.05,West,261,11.0,21.0,34,0.00,,---,0.00,VWS V14.01,2013-01-22 20:15:00,
2013-01-22 15:16:00,18.9,-4.8,30.05,West,261,11.0,21.0,34,0.00,,---,0.00,VWS V14.01,2013-01-22 20:16:00,
2013-01-22 15:21:00,18.8,-4.9,30.06,West,277,12.0,26.0,34,0.00,,---,0.00,VWS V14.01,2013-01-22 20:21:00,
2013-01-22 15:27:00,19.1,-5.3,30.06,NW,309,17.0,26.0,33,0.00,,---,0.00,VWS V14.01,2013-01-22 20:27:00,
2013-01-22 15:30:00,18.8,-6.2,30.06,NNW,338,13.0,26.0,32,0.00,,---,0.00,VWS V14.01,2013-01-22 20:30:00,
2013-01-22 15:33:00,18.6,-6.3,30.06,NNW,327,15.0,23.0,32,0.00,,---,0.00,VWS V14.01,2013-01-22 20:33:00,
2013-01-22 15:38:00,18.7,-5.6,30.06,NW,308,14.0,25.0,33,0.00,,---,0.00,VWS V14.01,2013-01-22 20:38:00,
2013-01-22 15:43:00,18.5,-5.8,30.06,NNW,342,12.0,25.0,33,0.00,,---,0.00,VWS V14.01,2013-01-22 20:43:00,
2013-01-22 15:45:00,18.4,-5.9,30.06,NW,321,12.0,25.0,33,0.00,,---,0.00,VWS V14.01,2013-01-22 20:45:00,
2013-01-22 15:48:00,18.2,-5.4,30.07,WNW,297,21.0,24.0,34,0.00,,---,0.00,VWS V14.01,2013-01-22 20:48:00,
2013-01-22 15:54:00,18.0,-5.6,30.07,West,273,15.0,29.0,34,0.00,,---,0.00,VWS V14.01,2013-01-22 20:54:00,
2013-01-22 15:59:00,18.1,-5.5,30.07,West,277,18.0,29.0,34,0.00,,---,0.00,VWS V14.01,2013-01-22 20:59:00,
2013-01-22 16:00:00,18.2,-5.4,30.08,WNW,286,14.0,29.0,34,0.00,,---,0.00,VWS V14.01,2013-01-22 21:00:00,
2013-01-22 16:04:00,18.2,-5.4,30.07,WNW,295,12.0,19.0,34,0.00,,---,0.00,VWS V14.01,2013-01-22 21:04:00,
2013-01-22 16:09:00,18.1,-5.5,30.07,WNW,294,6.0,19.0,34,0.00,,---,0.00,VWS V14.01,2013-01-22 21:09:00,
2013-01-22 16:14:00,18.0,-5.6,30.08,WNW,294,17.0,24.0,34,0.00,,---,0.00,VWS V14.01,2013-01-22 21:14:00,
2013-01-22 16:15:00,17.9,-5.7,30.08,West,262,19.0,24.0,34,0.00,,---,0.00,VWS V14.01,2013-01-22 21:15:00,
2013-01-22 16:20:00,17.9,-5.1,30.08,WNW,286,11.0,21.0,35,0.00,,---,0.00,VWS V14.01,2013-01-22 21:20:00,
2013-01-22 16:25:00,17.9,-5.7,30.08,WNW,302,8.0,28.0,34,0.00,,---,0.00,VWS V14.01,2013-01-22 21:25:00,
2013-01-22 16:30:00,17.8,-5.2,30.09,WNW,285,23.0,28.0,35,0.00,,---,0.00,VWS V14.01,2013-01-22 21:30:00,
2013-01-22 16:35:00,17.6,-5.4,30.09,WNW,284,19.0,21.0,35,0.00,,---,0.00,VWS V14.01,2013-01-22 21:35:00,
2013-01-22 16:40:00,17.6,-5.4,30.09,NNW,331,12.0,21.0,35,0.00,,---,0.00,VWS V14.01,2013-01-22 21:40:00,
2013-01-22 16:45:00,17.4,-5.0,30.09,WNW,301,9.0,21.0,36,0.00,,---,0.00,VWS V14.01,2013-01-22 21:45:00,
2013-01-22 16:46:00,17.4,-5.0,30.09,WNW,300,17.0,21.0,36,0.00,,---,0.00,VWS V14.01,2013-01-22 21:46:00,
2013-01-22 16:52:00,17.3,-5.7,30.09,West,268,8.0,22.0,35,0.00,,---,0.00,VWS V14.01,2013-01-22 21:52:00,
2013-01-22 16:57:00,17.2,-5.7,30.10,NW,312,10.0,22.0,35,0.00,,---,0.00,VWS V14.01,2013-01-22 21:57:00,
2013-01-22 17:00:00,17.2,-5.7,30.10,West,265,11.0,22.0,35,0.00,,---,0.00,VWS V14.01,2013-01-22 22:00:00,
2013-01-22 17:02:00,17.1,-5.8,30.10,WNW,283,14.0,15.0,35,0.00,,---,0.00,VWS V14.01,2013-01-22 22:02:00,
2013-01-22 17:07:00,17.0,-5.9,30.10,NNW,338,13.0,23.0,35,0.00,,---,0.00,VWS V14.01,2013-01-22 22:07:00,
2013-01-22 17:12:00,16.9,-6.0,30.11,WNW,295,9.0,23.0,35,0.00,,---,0.00,VWS V14.01,2013-01-22 22:12:00,
2013-01-22 17:15:00,16.8,-6.1,30.11,NW,321,13.0,23.0,35,0.00,,---,0.00,VWS V14.01,2013-01-22 22:15:00,
2013-01-22 17:18:00,16.8,-5.5,30.11,WNW,292,10.0,15.0,36,0.00,,---,0.00,VWS V14.01,2013-01-22 22:18:00,
2013-01-22 17:23:00,16.8,-5.5,30.11,West,267,13.0,17.0,36,0.00,,---,0.00,VWS V14.01,2013-01-22 22:23:00,
2013-01-22 17:28:00,16.7,-5.6,30.11,West,274,12.0,20.0,36,0.00,,---,0.00,VWS V14.01,2013-01-22 22:28:00,
2013-01-22 17:30:00,16.7,-6.2,30.12,West,278,14.0,20.0,35,0.00,,---,0.00,VWS V14.01,2013-01-22 22:30:00,
2013-01-22 17:33:00,16.8,-6.1,30.12,WNW,293,6.0,20.0,35,0.00,,---,0.00,VWS V14.01,2013-01-22 22:33:00,
2013-01-22 17:38:00,16.7,-6.2,30.12,NW,305,4.0,20.0,35,0.00,,---,0.00,VWS V14.01,2013-01-22 22:38:00,
2013-01-22 17:43:00,16.6,-6.3,30.12,WNW,290,12.0,20.0,35,0.00,,---,0.00,VWS V14.01,2013-01-22 22:43:00,
2013-01-22 17:45:00,16.6,-6.3,30.12,NW,315,8.0,20.0,35,0.00,,---,0.00,VWS V14.01,2013-01-22 22:45:00,
2013-01-22 17:49:00,16.5,-6.4,30.12,WNW,301,12.0,16.0,35,0.00,,---,0.00,VWS V14.01,2013-01-22 22:49:00,
2013-01-22 17:54:00,16.5,-6.4,30.13,NW,319,6.0,19.0,35,0.00,,---,0.00,VWS V14.01,2013-01-22 22:54:00,
2013-01-22 17:59:00,16.4,-6.4,30.13,WNW,283,10.0,19.0,35,0.00,,---,0.00,VWS V14.01,2013-01-22 22:59:00,
2013-01-22 18:00:00,16.4,-6.4,30.13,NW,317,13.0,19.0,35,0.00,,---,0.00,VWS V14.01,2013-01-22 23:00:00,
2013-01-22 18:04:00,16.4,-6.4,30.13,NW,308,12.0,23.0,35,0.00,,---,0.00,VWS V14.01,2013-01-22 23:04:00,
2013-01-22 18:09:00,16.4,-6.4,30.13,NNW,337,13.0,23.0,35,0.00,,---,0.00,VWS V14.01,2013-01-22 23:09:00,
2013-01-22 18:15:00,16.3,-6.5,30.13,WNW,301,8.0,23.0,35,0.00,,---,0.00,VWS V14.01,2013-01-22 23:15:00,
2013-01-22 18:20:00,16.3,-6.5,30.14,West,268,7.0,19.0,35,0.00,,---,0.00,VWS V14.01,2013-01-22 23:20:00,
2013-01-22 18:25:00,16.2,-6.6,30.14,WNW,302,9.0,20.0,35,0.00,,---,0.00,VWS V14.01,2013-01-22 23:25:00,
2013-01-22 18:30:00,16.1,-6.7,30.15,WSW,244,7.0,23.0,35,0.00,,---,0.00,VWS V14.01,2013-01-22 23:30:00,
2013-01-22 18:31:00,16.1,-6.7,30.15,West,261,11.0,23.0,35,0.00,,---,0.00,VWS V14.01,2013-01-22 23:31:00,
2013-01-22 18:36:00,16.1,-6.7,30.15,WNW,298,9.0,23.0,35,0.00,,---,0.00,VWS V14.01,2013-01-22 23:36:00,
2013-01-22 18:42:00,16.0,-6.8,30.15,West,273,11.0,23.0,35,0.00,,---,0.00,VWS V14.01,2013-01-22 23:42:00,
2013-01-22 18:45:00,15.9,-6.3,30.15,West,269,12.0,23.0,36,0.00,,---,0.00,VWS V14.01,2013-01-22 23:45:00,
2013-01-22 18:47:00,15.9,-6.3,30.15,West,277,7.0,13.0,36,0.00,,---,0.00,VWS V14.01,2013-01-22 23:47:00,
2013-01-22 18:52:00,15.8,-5.8,30.15,WNW,289,11.0,20.0,37,0.00,,---,0.00,VWS V14.01,2013-01-22 23:52:00,
2013-01-22 18:57:00,15.7,-5.9,30.15,NW,312,11.0,20.0,37,0.00,,---,0.00,VWS V14.01,2013-01-22 23:57:00,
2013-01-22 19:00:00,15.7,-5.4,30.15,WNW,297,11.0,20.0,38,0.00,,---,0.00,VWS V14.01,2013-01-23 00:00:00,
2013-01-22 19:03:00,15.7,-4.8,30.15,West,269,13.0,17.0,39,0.00,,---,0.00,VWS V14.01,2013-01-23 00:03:00,
2013-01-22 19:08:00,15.6,-4.9,30.16,WNW,285,7.0,21.0,39,0.00,,---,0.00,VWS V14.01,2013-01-23 00:08:00,
2013-01-22 19:13:00,15.4,-4.6,30.16,West,268,8.0,21.0,40,0.00,,---,0.00,VWS V14.01,2013-01-23 00:13:00,
2013-01-22 19:15:00,15.4,-4.6,30.16,West,272,13.0,21.0,40,0.00,,---,0.00,VWS V14.01,2013-01-23 00:15:00,
2013-01-22 19:18:00,15.3,-4.7,30.16,WNW,292,8.0,13.0,40,0.00,,---,0.00,VWS V14.01,2013-01-23 00:18:00,
2013-01-22 19:23:00,15.3,-4.7,30.16,NW,304,10.0,25.0,40,0.00,,---,0.00,VWS V14.01,2013-01-23 00:23:00,
2013-01-22 19:28:00,15.3,-4.7,30.16,WNW,302,12.0,25.0,40,0.00,,---,0.00,VWS V14.01,2013-01-23 00:28:00,
2013-01-22 19:30:00,15.3,-4.7,30.17,WNW,294,14.0,25.0,40,0.00,,---,0.00,VWS V14.01,2013-01-23 00:30:00,
2013-01-22 19:33:00,15.2,-4.8,30.17,NW,318,5.0,14.0,40,0.00,,---,0.00,VWS V14.01,2013-01-23 00:33:00,
2013-01-22 19:38:00,15.2,-4.3,30.17,NNW,327,10.0,18.0,41,0.00,,---,0.00,VWS V14.01,2013-01-23 00:38:00,
2013-01-22 19:44:00,15.1,-4.3,30.17,WNW,284,15.0,18.0,41,0.00,,---,0.00,VWS V14.01,2013-01-23 00:44:00,
2013-01-22 19:45:00,15.1,-4.3,30.17,NW,317,8.0,18.0,41,0.00,,---,0.00,VWS V14.01,2013-01-23 00:45:00,
2013-01-22 19:49:00,15.1,-4.3,30.17,WNW,287,12.0,26.0,41,0.00,,---,0.00,VWS V14.01,2013-01-23 00:49:00,
2013-01-22 19:54:00,15.0,-3.9,30.17,WSW,257,8.0,26.0,42,0.00,,---,0.00,VWS V14.01,2013-01-23 00:54:00,
2013-01-22 19:59:00,15.0,-3.9,30.17,West,268,10.0,26.0,42,0.00,,---,0.00,VWS V14.01,2013-01-23 00:59:00,
2013-01-22 20:00:00,15.0,-3.9,30.17,WNW,290,11.0,26.0,42,0.00,,---,0.00,VWS V14.01,2013-01-23 01:00:00,
2013-01-22 20:04:00,14.9,-3.5,30.18,NNW,342,12.0,19.0,43,0.00,,---,0.00,VWS V14.01,2013-01-23 01:04:00,
2013-01-22 20:10:00,14.8,-3.6,30.18,WNW,288,9.0,19.0,43,0.00,,---,0.00,VWS V14.01,2013-01-23 01:10:00,
2013-01-22 20:15:00,14.8,-3.2,30.18,West,280,18.0,19.0,44,0.00,,---,0.00,VWS V14.01,2013-01-23 01:15:00,
2013-01-22 20:20:00,14.8,-3.2,30.18,NW,318,10.0,20.0,44,0.00,,---,0.00,VWS V14.01,2013-01-23 01:20:00,
2013-01-22 20:25:00,14.7,-3.2,30.18,WNW,299,7.0,20.0,44,0.00,,---,0.00,VWS V14.01,2013-01-23 01:25:00,
2013-01-22 20:30:00,14.6,-3.3,30.18,NW,310,13.0,20.0,44,0.00,,---,0.00,VWS V14.01,2013-01-23 01:30:00,
2013-01-22 20:31:00,14.6,-3.3,30.18,West,277,7.0,20.0,44,0.00,,---,0.00,VWS V14.01,2013-01-23 01:31:00,
2013-01-22 20:36:00,14.6,-2.9,30.18,NW,311,9.0,19.0,45,0.00,,---,0.00,VWS V14.01,2013-01-23 01:36:00,
2013-01-22 20:41:00,14.5,-3.0,30.18,NW,311,16.0,19.0,45,0.00,,---,0.00,VWS V14.01,2013-01-23 01:41:00,
2013-01-22 20:45:00,14.5,-3.0,30.18,NNW,340,11.0,19.0,45,0.00,,---,0.00,VWS V14.01,2013-01-23 01:45:00,
2013-01-22 20:46:00,14.5,-3.0,30.18,West,277,11.0,12.0,45,0.00,,---,0.00,VWS V14.01,2013-01-23 01:46:00,
2013-01-22 20:51:00,14.4,-3.0,30.18,WNW,293,16.0,20.0,45,0.00,,---,0.00,VWS V14.01,2013-01-23 01:51:00,
2013-01-22 20:56:00,14.4,-3.5,30.18,WNW,296,15.0,20.0,44,0.00,,---,0.00,VWS V14.01,2013-01-23 01:56:00,
2013-01-22 21:00:00,14.4,-3.5,30.18,WNW,295,11.0,20.0,44,0.00,,---,0.00,VWS V14.01,2013-01-23 02:00:00,
2013-01-22 21:02:00,14.4,-3.5,30.18,NNW,328,14.0,14.0,44,0.00,,---,0.00,VWS V14.01,2013-01-23 02:02:00,
2013-01-22 21:07:00,14.3,-3.6,30.18,NW,326,12.0,21.0,44,0.00,,---,0.00,VWS V14.01,2013-01-23 02:07:00,
2013-01-22 21:12:00,14.3,-3.6,30.18,NNW,332,9.0,21.0,44,0.00,,---,0.00,VWS V14.01,2013-01-23 02:12:00,
2013-01-22 21:15:00,14.3,-3.6,30.19,NW,314,8.0,21.0,44,0.00,,---,0.00,VWS V14.01,2013-01-23 02:15:00,
2013-01-22 21:17:00,14.3,-4.1,30.18,WNW,296,10.0,16.0,43,0.00,,---,0.00,VWS V14.01,2013-01-23 02:17:00,
2013-01-22 21:22:00,14.1,-3.8,30.19,WNW,302,6.0,16.0,44,0.00,,---,0.00,VWS V14.01,2013-01-23 02:22:00,
2013-01-22 21:27:00,14.1,-4.3,30.19,WNW,293,9.0,21.0,43,0.00,,---,0.00,VWS V14.01,2013-01-23 02:27:00,
2013-01-22 21:30:00,14.1,-4.3,30.19,West,263,10.0,21.0,43,0.00,,---,0.00,VWS V14.01,2013-01-23 02:30:00,
2013-01-22 21:33:00,14.1,-4.3,30.19,WNW,286,6.0,18.0,43,0.00,,---,0.00,VWS V14.01,2013-01-23 02:33:00,
2013-01-22 21:38:00,13.9,-4.5,30.19,WNW,300,7.0,18.0,43,0.00,,---,0.00,VWS V14.01,2013-01-23 02:38:00,
2013-01-22 21:43:00,13.8,-4.1,30.19,NW,304,10.0,18.0,44,0.00,,---,0.00,VWS V14.01,2013-01-23 02:43:00,
2013-01-22 21:45:00,13.8,-4.6,30.19,WNW,290,10.0,18.0,43,0.00,,---,0.00,VWS V14.01,2013-01-23 02:45:00,
2013-01-22 21:48:00,13.8,-4.6,30.20,NW,315,9.0,15.0,43,0.00,,---,0.00,VWS V14.01,2013-01-23 02:48:00,
2013-01-22 21:53:00,13.8,-4.6,30.20,WNW,295,9.0,15.0,43,0.00,,---,0.00,VWS V14.01,2013-01-23 02:53:00,
2013-01-22 21:59:00,13.7,-4.6,30.20,NW,305,7.0,15.0,43,0.00,,---,0.00,VWS V14.01,2013-01-23 02:59:00,
2013-01-22 22:00:00,13.6,-4.7,30.20,WNW,286,3.0,15.0,43,0.00,,---,0.00,VWS V14.01,2013-01-23 03:00:00,
2013-01-22 22:04:00,13.6,-4.7,30.20,WNW,302,10.0,13.0,43,0.00,,---,0.00,VWS V14.01,2013-01-23 03:04:00,
2013-01-22 22:09:00,13.6,-4.7,30.21,NW,304,7.0,15.0,43,0.00,,---,0.00,VWS V14.01,2013-01-23 03:09:00,
2013-01-22 22:14:00,13.6,-4.7,30.21,WNW,292,6.0,15.0,43,0.00,,---,0.00,VWS V14.01,2013-01-23 03:14:00,
2013-01-22 22:15:00,13.5,-4.8,30.21,WNW,284,11.0,15.0,43,0.00,,---,0.00,VWS V14.01,2013-01-23 03:15:00,
2013-01-22 22:19:00,13.5,-5.3,30.21,West,273,5.0,16.0,42,0.00,,---,0.00,VWS V14.01,2013-01-23 03:19:00,
2013-01-22 22:25:00,13.5,-5.3,30.21,NW,322,8.0,16.0,42,0.00,,---,0.00,VWS V14.01,2013-01-23 03:25:00,
2013-01-22 22:30:00,13.4,-5.9,30.21,West,260,13.0,16.0,41,0.00,,---,0.00,VWS V14.01,2013-01-23 03:30:00,
2013-01-22 22:35:00,13.4,-5.9,30.21,NW,321,10.0,17.0,41,0.00,,---,0.00,VWS V14.01,2013-01-23 03:35:00,
2013-01-22 22:40:00,13.3,-6.0,30.21,WNW,294,13.0,20.0,41,0.00,,---,0.00,VWS V14.01,2013-01-23 03:40:00,
2013-01-22 22:45:00,13.2,-6.1,30.21,WNW,300,9.0,21.0,41,0.00,,---,0.00,VWS V14.01,2013-01-23 03:45:00,
2013-01-22 22:51:00,13.2,-6.1,30.21,WNW,292,18.0,18.0,41,0.00,,---,0.00,VWS V14.01,2013-01-23 03:51:00,
2013-01-22 22:57:00,13.1,-6.2,30.21,NW,323,5.0,18.0,41,0.00,,---,0.00,VWS V14.01,2013-01-23 03:57:00,
2013-01-22 23:00:00,13.0,-6.3,30.21,NW,309,4.0,18.0,41,0.00,,---,0.00,VWS V14.01,2013-01-23 04:00:00,
2013-01-22 23:02:00,13.0,-6.3,30.21,West,273,13.0,14.0,41,0.00,,---,0.00,VWS V14.01,2013-01-23 04:02:00,
2013-01-22 23:07:00,12.9,-6.3,30.21,West,272,7.0,15.0,41,0.00,,---,0.00,VWS V14.01,2013-01-23 04:07:00,
2013-01-22 23:12:00,12.8,-6.4,30.21,WNW,285,11.0,15.0,41,0.00,,---,0.00,VWS V14.01,2013-01-23 04:12:00,
2013-01-22 23:15:00,12.8,-6.4,30.21,WNW,300,9.0,18.0,41,0.00,,---,0.00,VWS V14.01,2013-01-23 04:15:00,
2013-01-22 23:17:00,12.7,-6.5,30.21,NW,307,9.0,15.0,41,0.00,,---,0.00,VWS V14.01,2013-01-23 04:17:00,
2013-01-22 23:23:00,12.7,-6.5,30.21,West,271,10.0,17.0,41,0.00,,---,0.00,VWS V14.01,2013-01-23 04:23:00,
2013-01-22 23:28:00,12.7,-6.5,30.21,NW,313,6.0,17.0,41,0.00,,---,0.00,VWS V14.01,2013-01-23 04:28:00,
2013-01-22 23:30:00,12.6,-6.6,30.21,WNW,289,16.0,17.0,41,0.00,,---,0.00,VWS V14.01,2013-01-23 04:30:00,
2013-01-22 23:33:00,12.6,-7.1,30.21,WNW,290,10.0,18.0,40,0.00,,---,0.00,VWS V14.01,2013-01-23 04:33:00,
2013-01-22 23:38:00,12.5,-6.7,30.21,NW,310,9.0,18.0,41,0.00,,---,0.00,VWS V14.01,2013-01-23 04:38:00,
2013-01-22 23:43:00,12.5,-6.7,30.21,NW,314,10.0,18.0,41,0.00,,---,0.00,VWS V14.01,2013-01-23 04:43:00,
2013-01-22 23:45:00,12.3,-6.9,30.21,West,264,12.0,18.0,41,0.00,,---,0.00,VWS V14.01,2013-01-23 04:45:00,
2013-01-22 23:49:00,12.3,-7.4,30.21,West,271,10.0,18.0,40,0.00,,---,0.00,VWS V14.01,2013-01-23 04:49:00,
2013-01-22 23:54:00,12.3,-7.4,30.21,WSW,258,13.0,20.0,40,0.00,,---,0.00,VWS V14.01,2013-01-23 04:54:00,
2013-01-22 23:59:00,12.2,-7.0,30.21,WNW,283,7.0,20.0,41,0.00,,---,0.00,VWS V14.01,2013-01-23 04:59:00,